| time (UTC) | temp F | wind direction | speed MPH | gust MPH | rain 1hr in | rain 24hr in | rain mn in | humidity % | barometer mb |
| 20260507014552 | 53 | 147 | 1.0 | 2.0 | 0.00 | 0.00 | 0.00 | 85 | 1020.9 |
| 20260507014052 | 53 | 138 | 2.0 | 2.0 | 0.00 | 0.00 | 0.00 | 86 | 1020.7 |
| 20260507013552 | 53 | 148 | 1.0 | 2.0 | 0.00 | 0.00 | 0.00 | 85 | 1020.5 |
| 20260507013052 | 53 | 128 | 2.0 | 2.0 | 0.00 | 0.00 | 0.00 | 86 | 1020.6 |
| 20260507012552 | 53 | 129 | 2.0 | 2.0 | 0.00 | 0.00 | 0.00 | 85 | 1020.7 |
| 20260507012052 | 53 | 148 | 1.0 | 2.0 | 0.00 | 0.00 | 0.00 | 84 | 1020.7 |
| 20260507011552 | 53 | 132 | 2.0 | 3.0 | 0.00 | 0.00 | 0.00 | 85 | 1020.6 |
| 20260507011052 | 53 | 150 | 2.0 | 2.0 | 0.00 | 0.00 | 0.00 | 85 | 1020.7 |
| 20260507010552 | 53 | 127 | 1.0 | 2.0 | 0.00 | 0.00 | 0.00 | 86 | 1020.8 |
| 20260507010052 | 53 | 131 | 1.0 | 2.0 | 0.00 | 0.00 | 0.00 | 85 | 1020.8 |
| 20260507005552 | 53 | 133 | 1.0 | 3.0 | 0.00 | 0.00 | 0.00 | 84 | 1020.8 |
| 20260507005052 | 53 | 140 | 2.0 | 2.0 | 0.00 | 0.00 | 0.00 | 85 | 1020.8 |
| 20260507004552 | 53 | 124 | 1.0 | 2.0 | 0.00 | 0.00 | 0.00 | 86 | 1020.9 |
| 20260507004052 | 53 | 119 | 2.0 | 2.0 | 0.00 | 0.00 | 0.00 | 85 | 1020.8 |
| 20260507003552 | 53 | 125 | 3.0 | 4.0 | 0.00 | 0.00 | 0.00 | 84 | 1020.9 |
| 20260507003052 | 53 | 114 | 1.0 | 2.0 | 0.00 | 0.00 | 0.00 | 84 | 1020.7 |
| 20260507002552 | 53 | 132 | 2.0 | 2.0 | 0.00 | 0.00 | 0.00 | 85 | 1020.8 |
| 20260507002052 | 53 | 144 | 2.0 | 3.0 | 0.00 | 0.00 | 0.00 | 84 | 1021.0 |
| 20260507001552 | 53 | 133 | 3.0 | 3.0 | 0.00 | 0.00 | 0.00 | 83 | 1020.7 |
| 20260507001052 | 54 | 116 | 2.0 | 3.0 | 0.00 | 0.00 | 0.00 | 83 | 1020.7 |
| 20260507000552 | 54 | 142 | 2.0 | 2.0 | 0.00 | 0.00 | 0.00 | 83 | 1020.6 |
| 20260507000052 | 53 | 144 | 2.0 | 2.0 | 0.00 | 0.00 | 0.00 | 84 | 1020.8 |
| 20260506235552 | 53 | 125 | 3.0 | 3.0 | 0.00 | 0.00 | 0.00 | 83 | 1020.7 |
| 20260506235052 | 53 | 142 | 2.0 | 3.0 | 0.00 | 0.00 | 0.00 | 83 | 1020.8 |
| 20260506234552 | 53 | 123 | 2.0 | 3.0 | 0.00 | 0.00 | 0.00 | 82 | 1020.9 |
| 20260506234052 | 53 | 128 | 2.0 | 2.0 | 0.00 | 0.00 | 0.00 | 83 | 1020.8 |
| 20260506233552 | 54 | 135 | 2.0 | 2.0 | 0.00 | 0.00 | 0.00 | 81 | 1020.8 |
| 20260506233052 | 54 | 130 | 3.0 | 3.0 | 0.00 | 0.00 | 0.00 | 82 | 1021.0 |
| 20260506232552 | 54 | 119 | 2.0 | 2.0 | 0.00 | 0.00 | 0.00 | 82 | 1020.8 |
| 20260506232052 | 54 | 149 | 1.0 | 2.0 | 0.00 | 0.00 | 0.00 | 82 | 1020.8 |
| 20260506231552 | 54 | 123 | 3.0 | 4.0 | 0.00 | 0.00 | 0.00 | 81 | 1020.9 |
| 20260506231052 | 54 | 129 | 2.0 | 3.0 | 0.00 | 0.00 | 0.00 | 81 | 1020.9 |
| 20260506230552 | 54 | 155 | 2.0 | 2.0 | 0.00 | 0.00 | 0.00 | 81 | 1020.8 |
| 20260506230052 | 54 | 141 | 2.0 | 2.0 | 0.00 | 0.00 | 0.00 | 81 | 1021.0 |
| 20260506225552 | 54 | 132 | 2.0 | 2.0 | 0.00 | 0.00 | 0.00 | 84 | 1020.8 |
| 20260506225052 | 54 | 108 | 2.0 | 3.0 | 0.00 | 0.00 | 0.00 | 81 | 1020.8 |
| 20260506224552 | 54 | 112 | 2.0 | 3.0 | 0.00 | 0.00 | 0.00 | 81 | 1020.9 |
| 20260506224052 | 54 | 107 | 2.0 | 3.0 | 0.00 | 0.00 | 0.00 | 81 | 1020.9 |
| 20260506223552 | 55 | 124 | 2.0 | 3.0 | 0.00 | 0.00 | 0.00 | 80 | 1021.0 |
| 20260506223052 | 55 | 128 | 2.0 | 2.0 | 0.00 | 0.00 | 0.00 | 81 | 1021.0 |
| 20260506222552 | 55 | 139 | 1.0 | 2.0 | 0.00 | 0.00 | 0.00 | 81 | 1020.8 |
| 20260506222052 | 55 | 156 | 1.0 | 2.0 | 0.00 | 0.00 | 0.00 | 80 | 1020.9 |
| 20260506221552 | 55 | 145 | 2.0 | 2.0 | 0.00 | 0.00 | 0.00 | 82 | 1020.9 |
| 20260506221052 | 54 | 130 | 1.0 | 2.0 | 0.00 | 0.00 | 0.00 | 85 | 1021.1 |
| 20260506220552 | 54 | 0 | 0.0 | 1.0 | 0.00 | 0.00 | 0.00 | 82 | 1021.2 |
| 20260506220052 | 54 | 113 | 1.0 | 1.0 | 0.00 | 0.00 | 0.00 | 82 | 1021.0 |
| 20260506215552 | 55 | 154 | 1.0 | 2.0 | 0.00 | 0.00 | 0.00 | 79 | 1020.9 |
| 20260506215052 | 55 | 121 | 1.0 | 2.0 | 0.00 | 0.00 | 0.00 | 81 | 1020.7 |
| 20260506214552 | 55 | 137 | 1.0 | 2.0 | 0.00 | 0.00 | 0.00 | 82 | 1021.2 |
| 20260506214052 | 55 | 135 | 2.0 | 2.0 | 0.00 | 0.00 | 0.00 | 79 | 1021.1 |
| 20260506213552 | 55 | 147 | 1.0 | 1.0 | 0.00 | 0.00 | 0.00 | 78 | 1021.0 |
| 20260506213052 | 55 | 128 | 2.0 | 3.0 | 0.00 | 0.00 | 0.00 | 78 | 1021.2 |
| 20260506212552 | 54 | 150 | 1.0 | 1.0 | 0.00 | 0.00 | 0.00 | 82 | 1021.2 |
| 20260506212052 | 55 | 143 | 2.0 | 3.0 | 0.00 | 0.00 | 0.00 | 78 | 1021.0 |
| 20260506211552 | 55 | 149 | 2.0 | 2.0 | 0.00 | 0.00 | 0.00 | 79 | 1021.1 |
| 20260506211052 | 54 | 122 | 1.0 | 2.0 | 0.00 | 0.00 | 0.00 | 82 | 1021.2 |
| 20260506210552 | 55 | 154 | 1.0 | 1.0 | 0.00 | 0.00 | 0.00 | 80 | 1021.0 |
| 20260506210052 | 55 | 139 | 2.0 | 2.0 | 0.00 | 0.00 | 0.00 | 80 | 1021.2 |
| 20260506205552 | 55 | 125 | 1.0 | 2.0 | 0.00 | 0.00 | 0.00 | 80 | 1021.2 |
| 20260506205052 | 55 | 146 | 2.0 | 2.0 | 0.00 | 0.00 | 0.00 | 79 | 1020.9 |
| 20260506204552 | 55 | 153 | 2.0 | 2.0 | 0.00 | 0.00 | 0.00 | 78 | 1021.1 |
| 20260506204052 | 55 | 146 | 1.0 | 2.0 | 0.00 | 0.00 | 0.00 | 76 | 1021.1 |
| 20260506203552 | 55 | 191 | 1.0 | 1.0 | 0.00 | 0.00 | 0.00 | 77 | 1020.8 |
| 20260506203052 | 55 | 162 | 2.0 | 2.0 | 0.00 | 0.00 | 0.00 | 78 | 1020.8 |
| 20260506202552 | 55 | 0 | 0.0 | 2.0 | 0.00 | 0.00 | 0.00 | 77 | 1020.9 |
| 20260506202052 | 55 | 153 | 1.0 | 2.0 | 0.00 | 0.00 | 0.00 | 80 | 1020.8 |
| 20260506201552 | 55 | 139 | 2.0 | 3.0 | 0.00 | 0.00 | 0.00 | 77 | 1020.9 |
| 20260506201052 | 54 | 145 | 1.0 | 2.0 | 0.00 | 0.00 | 0.00 | 82 | 1020.7 |
| 20260506200552 | 54 | 163 | 2.0 | 2.0 | 0.00 | 0.00 | 0.00 | 81 | 1020.7 |
| 20260506200052 | 54 | 155 | 2.0 | 2.0 | 0.00 | 0.00 | 0.00 | 78 | 1020.9 |
| 20260506195552 | 54 | 165 | 2.0 | 2.0 | 0.00 | 0.00 | 0.00 | 79 | 1021.0 |
| 20260506195052 | 54 | 156 | 1.0 | 2.0 | 0.00 | 0.00 | 0.00 | 80 | 1021.0 |
| 20260506194552 | 54 | 145 | 2.0 | 2.0 | 0.00 | 0.00 | 0.00 | 79 | 1020.9 |
| 20260506194052 | 53 | 153 | 1.0 | 2.0 | 0.00 | 0.00 | 0.00 | 81 | 1020.8 |
| 20260506193552 | 53 | 154 | 1.0 | 2.0 | 0.00 | 0.00 | 0.00 | 79 | 1020.7 |
| 20260506193052 | 53 | 160 | 2.0 | 2.0 | 0.00 | 0.00 | 0.00 | 82 | 1021.0 |
| 20260506192552 | 53 | 138 | 2.0 | 3.0 | 0.00 | 0.00 | 0.00 | 82 | 1020.7 |
| 20260506192052 | 53 | 149 | 3.0 | 3.0 | 0.00 | 0.00 | 0.00 | 82 | 1020.9 |
| 20260506191552 | 53 | 141 | 3.0 | 4.0 | 0.00 | 0.00 | 0.00 | 83 | 1020.6 |
| 20260506191052 | 53 | 137 | 2.0 | 3.0 | 0.00 | 0.00 | 0.00 | 81 | 1020.8 |
| 20260506190552 | 53 | 123 | 2.0 | 3.0 | 0.00 | 0.00 | 0.00 | 81 | 1020.6 |
| 20260506190052 | 53 | 161 | 1.0 | 2.0 | 0.00 | 0.00 | 0.00 | 83 | 1020.5 |
| 20260506185552 | 53 | 162 | 1.0 | 2.0 | 0.00 | 0.00 | 0.00 | 84 | 1020.8 |
| 20260506185052 | 53 | 148 | 3.0 | 3.0 | 0.00 | 0.00 | 0.00 | 83 | 1020.5 |
| 20260506184552 | 53 | 123 | 2.0 | 2.0 | 0.00 | 0.00 | 0.00 | 84 | 1020.4 |
| 20260506184052 | 53 | 151 | 1.0 | 2.0 | 0.00 | 0.00 | 0.00 | 83 | 1020.3 |
| 20260506183552 | 53 | 162 | 2.0 | 2.0 | 0.00 | 0.00 | 0.00 | 84 | 1020.6 |
| 20260506183052 | 53 | 146 | 2.0 | 3.0 | 0.00 | 0.00 | 0.00 | 84 | 1020.6 |
| 20260506182552 | 53 | 137 | 2.0 | 2.0 | 0.00 | 0.00 | 0.00 | 86 | 1020.5 |
| 20260506182052 | 53 | 117 | 3.0 | 4.0 | 0.00 | 0.00 | 0.00 | 85 | 1020.6 |
| 20260506181552 | 53 | 124 | 2.0 | 4.0 | 0.00 | 0.00 | 0.00 | 87 | 1020.4 |
| 20260506181052 | 52 | 104 | 3.0 | 3.0 | 0.00 | 0.00 | 0.00 | 90 | 1020.5 |
| 20260506180552 | 52 | 105 | 2.0 | 2.0 | 0.00 | 0.00 | 0.00 | 89 | 1020.7 |
| 20260506180052 | 53 | 151 | 1.0 | 3.0 | 0.00 | 0.00 | 0.00 | 88 | 1020.3 |
| 20260506175552 | 53 | 139 | 1.0 | 3.0 | 0.00 | 0.00 | 0.00 | 88 | 1020.5 |
| 20260506175052 | 53 | 139 | 2.0 | 2.0 | 0.00 | 0.00 | 0.00 | 86 | 1020.5 |
| 20260506174552 | 53 | 149 | 2.0 | 2.0 | 0.00 | 0.00 | 0.00 | 86 | 1020.4 |
| 20260506174052 | 53 | 157 | 2.0 | 2.0 | 0.00 | 0.00 | 0.00 | 87 | 1020.5 |
| 20260506173552 | 53 | 146 | 2.0 | 3.0 | 0.00 | 0.00 | 0.00 | 86 | 1020.1 |
| 20260506173052 | 53 | 159 | 2.0 | 2.0 | 0.00 | 0.00 | 0.00 | 85 | 1020.2 |
| 20260506172552 | 53 | 140 | 1.0 | 2.0 | 0.00 | 0.00 | 0.00 | 87 | 1020.1 |
| 20260506172052 | 53 | 150 | 1.0 | 2.0 | 0.00 | 0.00 | 0.00 | 87 | 1019.8 |
| 20260506171552 | 53 | 157 | 2.0 | 2.0 | 0.00 | 0.00 | 0.00 | 88 | 1020.1 |
| 20260506171052 | 53 | 130 | 2.0 | 3.0 | 0.00 | 0.00 | 0.00 | 87 | 1019.8 |
| 20260506170552 | 53 | 134 | 1.0 | 2.0 | 0.00 | 0.00 | 0.00 | 88 | 1020.1 |
| 20260506170052 | 53 | 126 | 2.0 | 3.0 | 0.00 | 0.00 | 0.00 | 87 | 1020.2 |
| 20260506165552 | 53 | 131 | 1.0 | 2.0 | 0.00 | 0.00 | 0.00 | 88 | 1020.1 |
| 20260506165052 | 52 | 157 | 2.0 | 2.0 | 0.00 | 0.00 | 0.00 | 87 | 1020.2 |
| 20260506164552 | 52 | 165 | 2.0 | 2.0 | 0.00 | 0.00 | 0.00 | 88 | 1019.8 |
| 20260506164052 | 52 | 138 | 2.0 | 3.0 | 0.00 | 0.00 | 0.00 | 88 | 1020.1 |
| 20260506163552 | 52 | 172 | 2.0 | 2.0 | 0.00 | 0.00 | 0.00 | 88 | 1020.0 |
| 20260506163052 | 52 | 163 | 1.0 | 2.0 | 0.00 | 0.00 | 0.00 | 88 | 1020.4 |
| 20260506162552 | 52 | 156 | 2.0 | 2.0 | 0.00 | 0.00 | 0.00 | 89 | 1020.4 |
| 20260506162052 | 52 | 144 | 2.0 | 2.0 | 0.00 | 0.00 | 0.00 | 88 | 1020.4 |
| 20260506161552 | 52 | 154 | 2.0 | 3.0 | 0.00 | 0.00 | 0.00 | 88 | 1020.4 |
| 20260506161052 | 52 | 148 | 2.0 | 2.0 | 0.00 | 0.00 | 0.00 | 89 | 1020.2 |
| 20260506160552 | 52 | 119 | 1.0 | 2.0 | 0.00 | 0.00 | 0.00 | 88 | 1020.2 |
| 20260506160052 | 52 | 145 | 1.0 | 2.0 | 0.00 | 0.00 | 0.00 | 88 | 1020.2 |
| 20260506155552 | 52 | 133 | 3.0 | 4.0 | 0.00 | 0.00 | 0.00 | 88 | 1019.9 |
| 20260506155052 | 52 | 148 | 3.0 | 3.0 | 0.00 | 0.00 | 0.00 | 89 | 1019.8 |
| 20260506154552 | 52 | 120 | 3.0 | 4.0 | 0.00 | 0.00 | 0.00 | 88 | 1019.4 |
| 20260506154052 | 52 | 104 | 2.0 | 2.0 | 0.00 | 0.00 | 0.00 | 88 | 1019.7 |
| 20260506153552 | 52 | 139 | 1.0 | 1.0 | 0.00 | 0.00 | 0.00 | 88 | 1019.5 |
| 20260506153052 | 52 | 143 | 2.0 | 4.0 | 0.00 | 0.00 | 0.00 | 88 | 1019.4 |
| 20260506152552 | 52 | 145 | 2.0 | 2.0 | 0.00 | 0.00 | 0.00 | 88 | 1019.6 |
| 20260506152052 | 52 | 129 | 2.0 | 2.0 | 0.00 | 0.00 | 0.00 | 90 | 1019.4 |
| 20260506151552 | 51 | 132 | 3.0 | 3.0 | 0.00 | 0.00 | 0.00 | 89 | 1019.6 |
| 20260506151052 | 51 | 150 | 2.0 | 2.0 | 0.00 | 0.00 | 0.00 | 90 | 1019.8 |
| 20260506150552 | 51 | 133 | 2.0 | 2.0 | 0.00 | 0.00 | 0.00 | 91 | 1019.8 |
| 20260506150052 | 51 | 134 | 2.0 | 2.0 | 0.00 | 0.00 | 0.00 | 92 | 1019.8 |
| 20260506145552 | 51 | 151 | 2.0 | 2.0 | 0.00 | 0.00 | 0.00 | 91 | 1019.9 |
| 20260506145052 | 51 | 148 | 2.0 | 2.0 | 0.00 | 0.00 | 0.00 | 91 | 1020.0 |
| 20260506144552 | 51 | 143 | 2.0 | 2.0 | 0.00 | 0.00 | 0.00 | 91 | 1020.1 |
| 20260506144052 | 51 | 120 | 1.0 | 2.0 | 0.00 | 0.00 | 0.00 | 92 | 1019.9 |
| 20260506143552 | 51 | 162 | 2.0 | 2.0 | 0.00 | 0.00 | 0.00 | 91 | 1019.6 |
| 20260506143052 | 50 | 136 | 1.0 | 3.0 | 0.00 | 0.00 | 0.00 | 92 | 1019.6 |
| 20260506142552 | 50 | 139 | 2.0 | 3.0 | 0.00 | 0.00 | 0.00 | 92 | 1019.4 |
| 20260506142052 | 50 | 140 | 2.0 | 3.0 | 0.00 | 0.00 | 0.00 | 92 | 1019.4 |
| 20260506141552 | 50 | 110 | 3.0 | 4.0 | 0.00 | 0.00 | 0.00 | 93 | 1019.6 |
| 20260506141052 | 50 | 136 | 1.0 | 2.0 | 0.00 | 0.00 | 0.00 | 93 | 1019.5 |
| 20260506140552 | 50 | 131 | 2.0 | 2.0 | 0.00 | 0.00 | 0.00 | 93 | 1019.7 |
| 20260506140052 | 50 | 138 | 2.0 | 3.0 | 0.00 | 0.00 | 0.00 | 93 | 1019.7 |
| 20260506135552 | 50 | 142 | 2.0 | 3.0 | 0.00 | 0.00 | 0.00 | 94 | 1019.6 |
| 20260506135052 | 50 | 130 | 1.0 | 3.0 | 0.00 | 0.00 | 0.00 | 94 | 1019.4 |
| 20260506134552 | 50 | 158 | 2.0 | 2.0 | 0.00 | 0.00 | 0.00 | 95 | 1019.6 |
| 20260506134052 | 50 | 141 | 2.0 | 3.0 | 0.00 | 0.00 | 0.00 | 95 | 1019.4 |
| 20260506133552 | 50 | 141 | 3.0 | 3.0 | 0.00 | 0.00 | 0.00 | 95 | 1019.5 |
| 20260506133052 | 50 | 149 | 3.0 | 4.0 | 0.00 | 0.00 | 0.00 | 95 | 1019.5 |
| 20260506132552 | 50 | 128 | 2.0 | 3.0 | 0.00 | 0.00 | 0.00 | 96 | 1019.5 |
| 20260506132052 | 50 | 145 | 2.0 | 2.0 | 0.00 | 0.00 | 0.00 | 96 | 1019.5 |
| 20260506131552 | 50 | 154 | 2.0 | 3.0 | 0.00 | 0.00 | 0.00 | 97 | 1019.6 |
| 20260506131052 | 50 | 134 | 2.0 | 2.0 | 0.00 | 0.00 | 0.00 | 97 | 1019.1 |
| 20260506130552 | 49 | 139 | 2.0 | 3.0 | 0.00 | 0.00 | 0.00 | 97 | 1019.5 |
| 20260506130052 | 49 | 132 | 1.0 | 2.0 | 0.00 | 0.00 | 0.00 | 97 | 1019.3 |
| 20260506125552 | 49 | 120 | 1.0 | 2.0 | 0.00 | 0.00 | 0.00 | 97 | 1019.3 |
| 20260506125052 | 49 | 137 | 1.0 | 2.0 | 0.00 | 0.00 | 0.00 | 97 | 1019.1 |
| 20260506124552 | 49 | 143 | 1.0 | 2.0 | 0.00 | 0.00 | 0.00 | 97 | 1019.1 |
| 20260506124052 | 49 | 139 | 3.0 | 3.0 | 0.00 | 0.00 | 0.00 | 97 | 1019.0 |
| 20260506123552 | 49 | 139 | 1.0 | 1.0 | 0.00 | 0.00 | 0.00 | 98 | 1019.0 |
| 20260506123052 | 49 | 134 | 1.0 | 2.0 | 0.00 | 0.00 | 0.00 | 98 | 1019.0 |
| 20260506122552 | 49 | 129 | 3.0 | 3.0 | 0.00 | 0.00 | 0.00 | 98 | 1018.9 |
| 20260506122052 | 49 | 135 | 2.0 | 2.0 | 0.00 | 0.00 | 0.00 | 98 | 1019.0 |
| 20260506121552 | 49 | 132 | 2.0 | 2.0 | 0.00 | 0.00 | 0.00 | 98 | 1019.1 |
| 20260506121052 | 49 | 126 | 2.0 | 3.0 | 0.00 | 0.00 | 0.00 | 98 | 1019.0 |
| 20260506120552 | 49 | 137 | 2.0 | 2.0 | 0.00 | 0.00 | 0.00 | 98 | 1019.0 |
| 20260506120052 | 48 | 153 | 2.0 | 2.0 | 0.00 | 0.00 | 0.00 | 98 | 1018.7 |
| 20260506115552 | 48 | 147 | 1.0 | 2.0 | 0.00 | 0.00 | 0.00 | 98 | 1018.8 |
| 20260506115052 | 48 | 143 | 1.0 | 2.0 | 0.00 | 0.00 | 0.00 | 98 | 1018.8 |
| 20260506114552 | 48 | 148 | 2.0 | 2.0 | 0.00 | 0.00 | 0.00 | 98 | 1018.8 |
| 20260506114052 | 48 | 140 | 2.0 | 3.0 | 0.00 | 0.00 | 0.00 | 98 | 1018.8 |
| 20260506113552 | 48 | 131 | 1.0 | 2.0 | 0.00 | 0.00 | 0.00 | 98 | 1018.9 |
| 20260506113052 | 48 | 145 | 2.0 | 2.0 | 0.00 | 0.00 | 0.00 | 98 | 1018.9 |
| 20260506112552 | 48 | 139 | 2.0 | 2.0 | 0.00 | 0.00 | 0.00 | 98 | 1018.6 |
| 20260506112052 | 48 | 146 | 2.0 | 3.0 | 0.00 | 0.00 | 0.00 | 98 | 1018.5 |
| 20260506111552 | 47 | 133 | 2.0 | 3.0 | 0.00 | 0.00 | 0.00 | 97 | 1018.7 |
| 20260506111052 | 47 | 156 | 1.0 | 2.0 | 0.00 | 0.00 | 0.00 | 97 | 1018.7 |
| 20260506110552 | 47 | 149 | 2.0 | 3.0 | 0.00 | 0.00 | 0.00 | 97 | 1018.6 |
| 20260506110052 | 47 | 147 | 2.0 | 2.0 | 0.00 | 0.00 | 0.00 | 97 | 1018.6 |
| 20260506105552 | 47 | 146 | 2.0 | 2.0 | 0.00 | 0.00 | 0.00 | 97 | 1018.4 |
| 20260506105052 | 47 | 130 | 2.0 | 4.0 | 0.00 | 0.00 | 0.00 | 97 | 1018.5 |
| 20260506104552 | 47 | 141 | 3.0 | 3.0 | 0.00 | 0.00 | 0.00 | 97 | 1018.4 |
| 20260506104052 | 46 | 138 | 2.0 | 2.0 | 0.00 | 0.00 | 0.00 | 97 | 1018.4 |
| 20260506103552 | 46 | 135 | 2.0 | 3.0 | 0.00 | 0.00 | 0.00 | 97 | 1018.4 |
| 20260506103052 | 46 | 131 | 2.0 | 2.0 | 0.00 | 0.00 | 0.00 | 97 | 1018.4 |
| 20260506102552 | 46 | 135 | 2.0 | 3.0 | 0.00 | 0.00 | 0.00 | 96 | 1018.2 |
| 20260506102052 | 46 | 127 | 1.0 | 2.0 | 0.00 | 0.00 | 0.00 | 97 | 1018.4 |
| 20260506101552 | 46 | 160 | 2.0 | 2.0 | 0.00 | 0.00 | 0.00 | 97 | 1018.2 |
| 20260506101052 | 46 | 137 | 1.0 | 2.0 | 0.00 | 0.00 | 0.00 | 96 | 1018.2 |
| 20260506100552 | 45 | 133 | 2.0 | 3.0 | 0.00 | 0.00 | 0.00 | 96 | 1018.2 |
| 20260506100052 | 45 | 186 | 2.0 | 2.0 | 0.00 | 0.00 | 0.00 | 95 | 1018.4 |
| 20260506095552 | 45 | 143 | 2.0 | 2.0 | 0.00 | 0.00 | 0.00 | 95 | 1018.3 |
| 20260506095052 | 45 | 167 | 1.0 | 2.0 | 0.00 | 0.00 | 0.00 | 95 | 1018.4 |
| 20260506094552 | 45 | 144 | 1.0 | 2.0 | 0.00 | 0.00 | 0.00 | 95 | 1018.2 |
| 20260506094052 | 45 | 158 | 1.0 | 2.0 | 0.00 | 0.00 | 0.00 | 95 | 1018.1 |
| 20260506093552 | 45 | 117 | 1.0 | 2.0 | 0.00 | 0.00 | 0.00 | 94 | 1018.0 |
| 20260506093052 | 45 | 113 | 1.0 | 2.0 | 0.00 | 0.00 | 0.00 | 94 | 1018.3 |
| 20260506092552 | 45 | 146 | 2.0 | 2.0 | 0.00 | 0.00 | 0.00 | 93 | 1017.8 |
| 20260506092052 | 45 | 131 | 1.0 | 2.0 | 0.00 | 0.00 | 0.00 | 95 | 1017.9 |
| 20260506091552 | 45 | 162 | 1.0 | 2.0 | 0.00 | 0.00 | 0.00 | 94 | 1018.2 |
| 20260506091052 | 45 | 149 | 1.0 | 2.0 | 0.00 | 0.00 | 0.00 | 94 | 1018.0 |
| 20260506090552 | 45 | 162 | 1.0 | 2.0 | 0.00 | 0.00 | 0.00 | 94 | 1017.9 |
| 20260506090052 | 45 | 157 | 1.0 | 2.0 | 0.00 | 0.00 | 0.00 | 94 | 1018.0 |
| 20260506085552 | 45 | 0 | 0.0 | 2.0 | 0.00 | 0.00 | 0.00 | 94 | 1018.1 |
| 20260506085052 | 45 | 121 | 1.0 | 3.0 | 0.00 | 0.00 | 0.00 | 94 | 1018.1 |
| 20260506084552 | 45 | 128 | 1.0 | 2.0 | 0.00 | 0.00 | 0.00 | 94 | 1017.9 |
| 20260506084052 | 45 | 124 | 2.0 | 2.0 | 0.00 | 0.00 | 0.00 | 94 | 1017.7 |
| 20260506083552 | 45 | 0 | 0.0 | 2.0 | 0.00 | 0.00 | 0.00 | 93 | 1017.8 |
| 20260506083052 | 45 | 168 | 1.0 | 2.0 | 0.00 | 0.00 | 0.00 | 93 | 1017.8 |
| 20260506082552 | 45 | 147 | 1.0 | 2.0 | 0.00 | 0.00 | 0.00 | 93 | 1017.5 |
| 20260506082052 | 45 | 146 | 1.0 | 2.0 | 0.00 | 0.00 | 0.00 | 92 | 1017.8 |
| 20260506081552 | 46 | 129 | 2.0 | 2.0 | 0.00 | 0.00 | 0.00 | 93 | 1017.7 |
| 20260506081052 | 46 | 137 | 1.0 | 2.0 | 0.00 | 0.00 | 0.00 | 93 | 1017.6 |
| 20260506080552 | 46 | 126 | 1.0 | 2.0 | 0.00 | 0.00 | 0.00 | 93 | 1017.4 |
| 20260506073052 | 47 | 182 | 1.0 | 2.0 | 0.00 | 0.00 | 0.00 | 93 | 1017.4 |
| 20260506072552 | 47 | 149 | 1.0 | 1.0 | 0.00 | 0.00 | 0.00 | 93 | 1017.1 |
| 20260506072052 | 47 | 117 | 1.0 | 2.0 | 0.00 | 0.00 | 0.00 | 92 | 1017.3 |
| 20260506071552 | 47 | 95 | 1.0 | 2.0 | 0.00 | 0.00 | 0.00 | 91 | 1017.2 |
| 20260506071052 | 47 | 141 | 1.0 | 2.0 | 0.00 | 0.00 | 0.00 | 91 | 1017.1 |
| 20260506070552 | 47 | 155 | 1.0 | 2.0 | 0.00 | 0.00 | 0.00 | 91 | 1017.0 |
| 20260506062052 | 49 | 154 | 2.0 | 3.0 | 0.00 | 0.00 | 0.00 | 90 | 1016.9 |
| 20260506061552 | 50 | 166 | 1.0 | 1.0 | 0.00 | 0.00 | 0.00 | 90 | 1016.9 |
| 20260506061052 | 50 | 153 | 2.0 | 2.0 | 0.00 | 0.00 | 0.00 | 91 | 1016.8 |
| 20260506060552 | 50 | 0 | 0.0 | 2.0 | 0.00 | 0.00 | 0.00 | 91 | 1016.7 |
| 20260506051052 | 51 | 139 | 1.0 | 1.0 | 0.00 | 0.00 | 0.00 | 89 | 1016.1 |
| 20260506050552 | 51 | 121 | 1.0 | 1.0 | 0.00 | 0.00 | 0.00 | 89 | 1016.1 |
| 20260506045052 | 51 | 137 | 1.0 | 2.0 | 0.00 | 0.00 | 0.00 | 88 | 1015.7 |
| 20260506044552 | 52 | 136 | 1.0 | 2.0 | 0.00 | 0.00 | 0.00 | 88 | 1015.8 |
| 20260506044052 | 52 | 139 | 1.0 | 2.0 | 0.00 | 0.00 | 0.00 | 88 | 1016.1 |
| 20260506043552 | 52 | 158 | 2.0 | 2.0 | 0.00 | 0.00 | 0.00 | 87 | 1015.8 |
| 20260506043052 | 52 | 158 | 1.0 | 2.0 | 0.00 | 0.00 | 0.00 | 86 | 1016.1 |
| 20260506042552 | 52 | 80 | 1.0 | 1.0 | 0.00 | 0.00 | 0.00 | 85 | 1015.9 |
| 20260506042052 | 52 | 148 | 1.0 | 2.0 | 0.00 | 0.00 | 0.00 | 85 | 1015.7 |
| 20260506041552 | 53 | 167 | 2.0 | 2.0 | 0.00 | 0.00 | 0.00 | 85 | 1015.7 |
| 20260506041052 | 53 | 0 | 0.0 | 1.0 | 0.00 | 0.00 | 0.00 | 85 | 1015.6 |
| 20260506040552 | 53 | 188 | 1.0 | 1.0 | 0.00 | 0.00 | 0.00 | 84 | 1015.6 |
| 20260506040052 | 53 | 179 | 1.0 | 1.0 | 0.00 | 0.00 | 0.00 | 84 | 1015.8 |
| 20260506035552 | 54 | 0 | 0.0 | 1.0 | 0.00 | 0.00 | 0.00 | 85 | 1015.7 |
| 20260506035052 | 54 | 161 | 1.0 | 1.0 | 0.00 | 0.00 | 0.00 | 84 | 1015.3 |
| 20260506034552 | 54 | 154 | 1.0 | 1.0 | 0.00 | 0.00 | 0.00 | 83 | 1015.6 |
| 20260506034052 | 55 | 139 | 1.0 | 1.0 | 0.00 | 0.00 | 0.00 | 82 | 1015.4 |
| 20260506033552 | 55 | 125 | 1.0 | 2.0 | 0.00 | 0.00 | 0.00 | 82 | 1015.4 |
| 20260506033052 | 55 | 132 | 2.0 | 2.0 | 0.00 | 0.00 | 0.00 | 82 | 1015.5 |
| 20260506032552 | 56 | 177 | 1.0 | 2.0 | 0.00 | 0.00 | 0.00 | 81 | 1015.5 |
| 20260506032052 | 56 | 0 | 0.0 | 2.0 | 0.00 | 0.00 | 0.00 | 81 | 1015.4 |
| 20260506031552 | 56 | 161 | 1.0 | 2.0 | 0.00 | 0.00 | 0.00 | 82 | 1015.5 |
| 20260506031052 | 57 | 0 | 0.0 | 1.0 | 0.00 | 0.00 | 0.00 | 81 | 1015.3 |
| 20260506030552 | 57 | 169 | 1.0 | 2.0 | 0.00 | 0.00 | 0.00 | 80 | 1015.2 |
| 20260506030052 | 57 | 147 | 1.0 | 2.0 | 0.00 | 0.00 | 0.00 | 80 | 1015.4 |
| 20260506025552 | 57 | 0 | 0.0 | 1.0 | 0.00 | 0.00 | 0.00 | 80 | 1015.3 |
| 20260506025052 | 57 | 124 | 1.0 | 1.0 | 0.00 | 0.00 | 0.00 | 79 | 1015.1 |
| 20260506024552 | 57 | 131 | 2.0 | 2.0 | 0.00 | 0.00 | 0.00 | 79 | 1015.1 |
| 20260506024052 | 58 | 147 | 1.0 | 1.0 | 0.00 | 0.00 | 0.00 | 79 | 1015.3 |
| 20260506023552 | 58 | 124 | 2.0 | 2.0 | 0.00 | 0.00 | 0.00 | 79 | 1015.3 |
| 20260506023052 | 58 | 157 | 1.0 | 1.0 | 0.00 | 0.00 | 0.00 | 79 | 1015.1 |
| 20260506022552 | 58 | 0 | 0.0 | 1.0 | 0.00 | 0.00 | 0.00 | 79 | 1015.2 |
| 20260506022052 | 58 | 182 | 2.0 | 2.0 | 0.00 | 0.00 | 0.00 | 79 | 1015.2 |
| 20260506021552 | 58 | 154 | 1.0 | 2.0 | 0.00 | 0.00 | 0.00 | 80 | 1015.3 |
| 20260506021052 | 58 | 172 | 1.0 | 2.0 | 0.00 | 0.00 | 0.00 | 79 | 1015.3 |
| 20260506020552 | 59 | 157 | 1.0 | 2.0 | 0.00 | 0.00 | 0.00 | 79 | 1015.3 |
| 20260506020052 | 59 | 164 | 1.0 | 1.0 | 0.00 | 0.00 | 0.00 | 79 | 1015.3 |
| 20260506015552 | 59 | 167 | 1.0 | 2.0 | 0.00 | 0.00 | 0.00 | 77 | 1015.1 |
| 20260506015052 | 59 | 124 | 1.0 | 1.0 | 0.00 | 0.00 | 0.00 | 78 | 1015.0 |